Weather History for Aberdeen, SD

Change the Weather History Date:

Wednesday, November 21, 2012

  Actual Average Record
Temperature  
Mean Temperature 44 °F 26 °F  
Max Temperature 62 °F 36 °F 66 °F (1904)
Min Temperature 26 °F 16 °F -18 °F (1964)
Degree Days  
Heating Degree Days 21 39  
Month to date heating degree days 649 698  
Since 1 July heating degree days 1531 1589  
Cooling Degree Days 0 0  
Month to date cooling degree days 0 0  
Year to date cooling degree days 764 525  
Moisture  
Dew Point 29 °F    
Average Humidity 63    
Maximum Humidity 92    
Minimum Humidity 34    
Precipitation  
Precipitation 0.00 in 0.02 in 0.60 in (1930)
Month to date precipitation 0.37 0.55  
Year to date precipitation 13.88 21.02  
Snow  
Snow 0.00 in - - ()
Month to date snowfall 0.6  
Since 1 July snowfall 0.6  
Snow Depth 0.00 in    
Sea Level Pressure  
Sea Level Pressure 29.76 in    
Wind  
Wind Speed 7 mph (South)    
Max Wind Speed 16 mph    
Max Gust Speed 21 mph    
Visibility 10 miles    
Events      
T = Trace of Precipitation, MM = Missing Value Source: NWS Daily Summary

Daily Weather History Graph

Daily Weather History Graph

Search for Another Location

Airport:

Trip Planner

Search our weather history database for the weather conditions in past years. The results will help you decide how hot, cold, wet, or windy it might be!

Date:

Astronomy

Nov. 21, 2012 Rise Set
Actual Time 7:41 AM CST 4:57 PM CST
Civil Twilight 7:08 AM CST 5:30 PM CST
Nautical Twilight 6:32 AM CST 6:06 PM CST
Astronomical Twilight 5:57 AM CST 6:41 PM CST
Moon 1:31 PM CST (11/21) 12:43 AM CST (11/21)
Length of Visible Light 10h 21m
Length of Day
9h 16m
First Quarter, 62% of the Moon is Illuminated
Nov 21
First Quarter
Nov 28
Full
Dec 6
Last Quarter
Dec 13
New
Dec 19
First Quarter

Hourly Weather History & Observations

Time (CST) Temp. Windchill Dew Point Humidity Pressure Visibility Wind Dir Wind Speed Gust Speed Precip Events Conditions
12:53 AM 27.0 °F 18.7 °F 24.1 °F 89% 29.93 in 9.0 mi SSE 8.1 mph - N/A   Clear
1:53 AM 28.9 °F 23.9 °F 26.1 °F 89% 29.94 in 9.0 mi South 4.6 mph - N/A   Clear
2:53 AM 28.9 °F 21.9 °F 26.1 °F 89% 29.93 in 10.0 mi South 6.9 mph - N/A   Clear
3:53 AM 28.0 °F 22.8 °F 24.1 °F 85% 29.91 in 10.0 mi SSE 4.6 mph - N/A   Clear
4:53 AM 28.0 °F 21.7 °F 25.0 °F 88% 29.91 in 10.0 mi South 5.8 mph - N/A   Clear
5:53 AM 30.9 °F 25.2 °F 27.0 °F 85% 29.92 in 10.0 mi SSW 5.8 mph - N/A   Clear
6:53 AM 30.0 °F 26.5 °F 26.1 °F 85% 29.90 in 10.0 mi ESE 3.5 mph - N/A   Clear
7:53 AM 28.9 °F 22.8 °F 25.0 °F 85% 29.89 in 10.0 mi ESE 5.8 mph - N/A   Clear
8:53 AM 34.0 °F 28.8 °F 30.0 °F 85% 29.88 in 10.0 mi South 5.8 mph - N/A   Clear
9:53 AM 39.0 °F 34.8 °F 32.0 °F 76% 29.86 in 10.0 mi South 5.8 mph - N/A   Clear
10:53 AM 45.0 °F 40.6 °F 33.1 °F 63% 29.85 in 10.0 mi SSW 8.1 mph - N/A   Clear
11:53 AM 50.0 °F - 34.0 °F 54% 29.80 in 10.0 mi SSE 6.9 mph - N/A   Clear
12:53 PM 57.9 °F - 34.0 °F 41% 29.75 in 10.0 mi SSE 10.4 mph - N/A   Clear
1:53 PM 60.1 °F - 33.1 °F 36% 29.72 in 10.0 mi South 12.7 mph - N/A   Clear
2:53 PM 62.1 °F - 33.1 °F 34% 29.67 in 10.0 mi South 9.2 mph - N/A   Clear
3:53 PM 55.9 °F - 33.1 °F 42% 29.67 in 10.0 mi South 9.2 mph - N/A   Clear
4:53 PM 48.0 °F - 33.1 °F 56% 29.66 in 10.0 mi SSE 5.8 mph - N/A   Clear
5:53 PM 42.1 °F 36.6 °F 30.9 °F 65% 29.64 in 10.0 mi SSE 9.2 mph - N/A   Clear
6:53 PM 46.9 °F - 32.0 °F 56% 29.62 in 10.0 mi South 10.4 mph - N/A   Clear
7:53 PM 44.1 °F 41.5 °F 30.9 °F 60% 29.61 in 10.0 mi South 4.6 mph - N/A   Clear
8:53 PM 37.9 °F 34.4 °F 30.0 °F 73% 29.61 in 10.0 mi West 4.6 mph - N/A   Clear
9:53 PM 36.0 °F 33.3 °F 28.0 °F 73% 29.61 in 10.0 mi SW 3.5 mph - N/A   Clear
10:53 PM 35.1 °F 31.0 °F 28.0 °F 76% 29.59 in 10.0 mi SSW 4.6 mph - N/A   Clear
11:53 PM 30.0 °F 24.1 °F 26.1 °F 85% 29.59 in 10.0 mi SSE 5.8 mph - N/A   Clear